timestamp,gas_concentrations,,corrected_fluxes_and_quality_flags,,,,,,,,,,storage_terms,,,turbulence,,,footprint,,
ISOdate,CO2_1_1_1,H2O_1_1_1,Tau_1_1_1,QcTau_1_1_1,H_1_1_1,QcH_1_1_1,LE_1_1_1, QcLE_1_1_1,Fc_1_1_1, QcFc_1_1_1,E_1_1_1, QcE_1_1_1,Sa_1_1_1,Sw_1_1_1,Sc_1_1_1,ustar_1_1_1,MO_length_1_1_1,ZL_1_1_1,Fetchmax_1_1_1,Fetch70_1_1_1,Fetch90_1_1_1
yyyymmddHHMM,[µmol+1mol_a-1],[mmol+1mol_a-1],[kg+1m-1s-2],[#],[W+1m-2],[#],[W+1m-2],[#],[µmol+1s-1m-2],[#],[mmol+1s-1m-2],[#],[W+1m-2],[W+1m-2],[µmol+1s-1m-2],[m+1s-1],[m],[#],[m],[m],[m]
201811130030,421.37579530510476,1.9925786109415458,0.27915253138117169,0,-0.47253311789654440,2,12.060342166016536,0,0.39296756950343248,0,0.26520569357078089,0,-9999.,-9999.,-9999.,0.46950202231446531,18491.838251811238,1.16808289721463069E-003,87.909888032441486,160.72731274405888,240.79880284165867
201811130100,421.23992457327404,2.0092363468044718,0.43811361329574089,0,7.8110253072941394,1,17.640375192181665,0,0.73870598798028042,1,0.38782834333563443,0,-5.5622707513157206,0.64514017683093050,-0.11568998357628008,0.58794603039593551,-2196.7907981148733,-9.83252479869068871E-003,106.72395481635199,195.12542726388705,292.33344654950645
201811130130,421.08392625386080,2.0158693535231227,0.39351193466950601,0,-1.9640597473402124,1,10.715308511332317,0,0.13052526411569709,1,0.23554426088407682,0,-3.8864848241543073,0.25706003765461050,-0.13289599609254807,0.55707352838875934,7430.8928682202131,2.90678393337858148E-003,106.19795136996898,194.16372520370405,290.89264161829243
201811130200,421.01877421713573,2.0239953922525262,0.21770470608488190,0,-2.1751657714070376,1,6.0234338395670299,0,0.31531274051356678,1,0.13239654686743213,0,-2.1505059374875510,0.31502590494844318,-5.55172429373966755E-002,0.41429928665909227,2759.8367222958573,7.82654996417011216E-003,92.354666505497178,168.85378538219089,252.97373969077870
201811130230,421.01868520137049,2.0067805322743344,0.33643535720991574,0,11.119910133383055,1,11.945489701051196,1,0.68172928766179997,2,0.26253249681835755,1,-3.2519353663392581,-0.66774082615355446,-7.58840455323795776E-005,0.51491773653646544,-1036.3832359429061,-2.08417111073281938E-002,99.301580010654533,181.55495887404322,272.00241203841182
201811130300,420.98299877106103,2.0202992082359130,0.48618311991037316,0,4.2372043363871006,0,8.2038101618175254,0,0.51369050015847006,0,0.18027081461250991,0,-4.2226309769623596,0.52477256255085258,-3.04403673323247297E-002,0.61880878075081647,-4720.4743242338345,-4.57581135207335999E-003,101.31829607815121,185.24215904402737,277.52650978888926
201811130330,420.93933666413614,2.0506886448987571,0.27485489632120919,1,-5.2713564214787469,2,5.3499837582220797,1,0.14805892484777305,1,0.11754907574401664,1,-2.6256874012004259,1.1802438892175391,-3.72580872191618923E-002,0.46518555774619569,1611.9424055673267,1.33999824841122862E-002,82.577778900515426,150.97851666191320,226.19332984736883
201811130400,420.81708084821469,2.0333375875490129,0.35418075983902964,0,-3.5457477534744095,1,3.3645959656448565,1,0.15129124516730896,0,7.39153224662510433E-002,1,-3.9780359722538630,-0.67435044700136260,-0.10438324383951561,0.52791359198172116,3502.3399680768566,6.16730534353597103E-003,91.482896867362470,167.25991244701498,250.58582759220934
201811130430,420.71232915196714,1.9735810408169212,0.21748397256709298,0,4.0502941548823541,1,7.9144738176654768,1,0.70957633191012459,0,0.17384804887953384,1,-3.2835064936450173,-2.3239065683286459,-8.94833036992744718E-002,0.41357019904065662,-1474.1273560937661,-1.46527366924639520E-002,83.039365950868515,151.82244500559770,227.45768829008708
201811130500,420.52859082904729,1.9249278220270714,0.28032446461990190,0,-5.5564860289172264,2,5.9325864215640198,1,0.57782247574708090,1,0.13029235284806900,1,-4.4550000138157655,-1.8934430436104770,-0.15704180182521940,0.46940187835667802,1570.9410317517984,1.37497204308892895E-002,84.140553535846479,153.83576711670437,230.47401168784793
201811130530,420.52880570261794,1.9263211941396028,0.40547151431354866,0,0.16587512453864109,2,7.9892542202567176,0,0.66098363112263825,1,0.17542993619795319,0,-4.7322602025618767,5.42757700012421671E-002,1.83788928041934475E-004,0.56433138008212436,-91443.011734795247,-2.36212692366746747E-004,106.95929353673583,195.55570150218392,292.97807576470700
201811130600,420.75865467745223,1.9335272631012430,0.38649937566231635,0,12.492688251892561,1,87.190213160474201,1,-1.13308719477573927E-002,1,1.9140844303680342,1,-6.3749929227888034,0.28108150345231481,0.19682024864299358,0.55066007000059780,-1128.1612001816964,-1.91462000257775281E-002,94.298307654754765,172.40738129558417,258.29767391899998
201811130630,420.62519174070258,1.9420882827022496,0.23028454765622025,0,-3.7674353572412027,1,11.479032259625416,0,0.20187020647428713,0,0.25194904830373938,0,-5.2654120914039320,0.33426399930607531,-0.11437529740890762,0.42488374092243675,1718.4476721760341,1.25694836972535667E-002,90.469004770398712,165.40619432946619,247.80862006045371
201811130700,420.81948049483162,1.9267836880966727,0.34890788082019425,0,4.5228263346002491,0,-3.9563616327890827,2,4.5313538455161986,0,-8.68223453624223374E-002,2,-4.4115241458160970,-0.59805832164284767,0.16661147247703822,0.52281616317329282,-2666.8681933561961,-8.09938790893781173E-003,99.693882447345828,182.27221284675980,273.07698919032754
201811130730,420.47678824190666,1.9009627898056014,0.37791388313597890,0,3.8008799690560542,0,9.0699524294794713,0,0.47943326785154489,1,0.19901291220211798,0,-3.6392907980700091,-1.0096643729423591,-0.29402632603776535,0.54397078032868840,-3574.3099620356147,-6.04312447141504457E-003,97.418312902643848,178.11174596336213,266.84385166267009
201811130800,420.29921903756457,1.8636399573079150,0.30610879064297847,0,8.0868535673215067,1,9.8530947623321481,0,0.38013403281656838,2,0.21615793396872174,0,-4.7752383727165624,-1.4607173017672306,-0.15246064312947991,0.48939541771957379,-1223.3188549577030,-1.76568847218061022E-002,90.492584567164016,165.44930571834360,247.87320877691570
201811130830,420.31969908163387,1.8433212456055441,0.26484897605280605,0,1.3875552596794054,1,9.0092387506539655,0,0.65116457349088741,1,0.19762233625889619,0,-3.1100888850245396,-0.79572606612159702,1.75932565730390553E-002,0.45510001737350436,-5733.5160139956151,-3.76732182264321149E-003,92.741043057776565,169.56020494823861,254.03208492721706
201811130900,420.37382283344664,1.8042621476365406,0.33747261814659940,0,4.6826016908757744,0,7.7874377338469944,0,0.42818508502205777,1,0.17079141589087990,0,-4.7054869368557197,-1.5308433553571350,4.65230190183604508E-002,0.51356029647698398,-2441.1805483096682,-8.84817799115938247E-003,94.127565087846889,172.09520942772787,257.82998357578896
201811130930,420.45289811131545,1.7937240341259100,0.28528670994362576,0,-1.1551992965665738,1,3.4365781883213176,0,0.34450452855328290,0,7.53634316559789741E-002,0,-2.2781215345217545,-0.41314087166400681,6.79845852354991065E-002,0.47213610181637855,7687.9800236108713,2.80958066145637134E-003,102.93932085734703,188.20590933973389,281.96674779787151
201811131000,420.38480486969507,1.7989133728035107,0.48277883826357548,1,3.3410642680169524,1,9.9054208967642765,0,0.33933854347445114,2,0.21721089785095807,0,-1.5856601737134790,0.20347692192127709,-5.85485076790075998E-002,0.61415774262118950,-5850.2885101078145,-3.69212560417844001E-003,107.05670352513638,195.73379802830249,293.24489681426871
201811131030,420.43536943555165,1.8088077542834486,0.33448153077029802,0,2.9029324502834903,0,6.7951309428438051,0,0.51794600829897530,0,0.14900647846847467,0,-8.34501577337451728E-002,0.38793872727067680,4.34738487104509713E-002,0.51121985105871126,-3883.1464949238803,-5.56249938760639429E-003,95.707976448808097,174.98470544191613,262.15897514015518
201811131100,420.59994451085942,1.8167893082199182,0.31255831182183591,0,2.3865528307985158,1,2.7858692422131628,2,0.66124477664418091,1,6.10886210328900892E-002,2,-0.47569220957408859,0.31296314699916755,0.14150422372473034,0.49416963224915433,-4266.2798231507450,-5.06295904051786046E-003,98.321795101966913,179.76359957459297,269.31862937943225
201811131130,420.47697583219309,1.7953942938512109,0.19600140158237134,0,-1.0654153808946170,2,-1.9702920723375823,2,0.74020729585164169,0,-4.31987014150381904E-002,2,-3.6653611888947708,-0.83942276638406210,-0.10577980195347834,0.39123428533842186,4741.9024980758695,4.55513372718327134E-003,82.812895034191683,151.40838394071818,226.83734936309278
201811131200,420.50918835128584,1.7668159005697164,0.31327197392410344,0,2.2035930476873107,0,9.1681590734822898,0,0.36915728685957977,0,0.20099140772656662,0,-2.7564394838034501,-1.1218509960308074,2.77215436768449112E-002,0.49450820588712580,-4629.6516144409097,-4.66557784448074116E-003,98.084132369294451,179.32907630062681,268.66763433452343
201811131230,420.52192422843888,1.7377868308824638,0.32856498630973963,0,-3.0755753667784886,0,5.8457314103050759,0,0.48788759474408677,0,0.12813700727930413,0,-3.6768944075885961,-1.1402141127618235,1.09652332609068218E-002,0.50631738552188343,3560.1162765516647,6.06721756316392063E-003,86.301335406657202,157.78636552257797,236.39272799313059
201811131300,420.62290399497266,1.6951547581665014,0.23571826685335165,0,-11.013590909423328,1,3.2353769526524743,0,0.33392628535467184,1,7.09024344115015692E-002,0,-6.1397800637076214,-1.6765671840558227,8.70272248734069165E-002,0.42863678311525560,603.21770104446330,3.58079677744865474E-002,84.107495873495338,153.77532716672584,230.38346162917921
201811131330,420.64841493790885,1.6943128486438255,0.42239788173284687,0,2.3870032343706802,0,10.325712813453521,0,0.45949827742055621,0,0.22629608028701409,0,1.2797000833869061,-3.31046611384784306E-002,2.19840258423285584E-002,0.57381730707377210,-6677.8246719038889,-3.23458627041816422E-003,95.852606674157471,175.24913562129930,262.55513973435870
201811131400,420.72841537970197,1.6958871346185547,0.33776090740683140,0,17.156492647041972,0,11.055220168999984,0,0.71866999521283681,0,0.24230776945392102,0,2.6504841486166746,6.18747142961934074E-002,6.89162930729000783E-002,0.51320773484399396,-664.71695032935702,-3.24950341484409808E-002,88.429745373116646,161.67777776280806,242.22277263714781
201811131430,420.69772543218005,1.6905133827960788,0.62894495012453866,0,23.937686223796099,0,15.777932510786584,1,1.0979371482236706,2,0.34585695977358050,1,2.8673723317227591,-0.21114694129067382,-2.64332011237727559E-002,0.70037773633576750,-1211.1075175465830,-1.78349153044285343E-002,104.16279602040890,190.44281214520063,285.31803581752047
201811131500,420.67735448110312,1.7212916664714095,0.67076267164042835,0,81.859089370655525,1,13.565580880584172,1,0.11199223177414552,1,0.29754019606873933,1,16.046191726661281,1.2057685045827387,-1.75040317777569489E-002,0.72414644071430678,-391.48498776766741,-5.51745294836665442E-002,107.21216974297042,196.01803985791017,293.67074287066390
201811131530,420.58040212331235,1.7295432036331178,0.53988528549806603,0,75.568837627149833,0,12.588788032416803,0,0.84943811668518965,0,0.27615066542049571,0,3.3762223818380512,0.32307820442564600,-8.32709173023283011E-002,0.64981433511125852,-306.44501780020880,-7.04857274399625922E-002,95.546521341434058,174.68951401217100,261.71672458747571
201811131600,420.50931565598273,1.7471264765633328,0.66439517661398795,0,98.426109831139868,0,15.583688296629829,0,0.95831120674477255,0,0.34201380787039015,0,12.954973468316748,0.68680041327195063,-6.09384143922499302E-002,0.72155360452568706,-322.14341593450962,-6.70508814756940047E-002,101.31268972589760,185.23190884405344,277.51115312149733
201811131630,420.47119842072095,1.7419152851803483,0.82168319140954593,0,125.13772573573431,0,19.103704395546295,0,1.2683340646186476,0,0.41942610813446612,0,10.069248656123802,-0.20316507930274516,-3.26265612562177468E-002,0.80303466309132299,-349.28615816780172,-6.18404122090148028E-002,104.57676398808560,191.19967761842523,286.45195821535765
201811131700,420.48236493762744,1.7570451126973543,0.47788014657051858,0,80.445837539059568,0,12.612037160417399,0,1.0670153957771031,1,0.27701577288470774,0,11.080250417672788,0.58858735232977777,9.54144019773721895E-003,0.61294242252847697,-241.60946867711351,-8.94004697674585097E-002,87.784665337652697,160.49836572025487,240.45579848039023
201811131730,420.32080188295231,1.7170642526770772,0.63203250782166509,0,103.12421727933996,0,19.212603994433323,0,0.70117674902726268,0,0.42202041696013831,0,1.7076823855615952,-1.5545344276357265,-0.13798678610661849,0.70506148293152948,-286.82316645045103,-7.53077245025513681E-002,93.642165444680415,171.20774406974357,256.50039875216686
201811131800,420.32278354071411,1.7283859029958748,0.39856540200459867,0,88.663053668463391,0,10.016199670905955,1,0.81162220487413794,0,0.22009680772960921,1,9.9631825664390359,0.43926246872002983,1.68948283486011633E-003,0.56039359999459337,-167.47780377270271,-0.12897231461976333,86.874291996248857,158.83391290348334,237.96214485785228
201811131830,420.29954423350540,1.7528686212212665,0.40937095139183360,0,58.593161904842290,0,10.513783449937790,0,0.44393247707844186,0,0.23105793222055315,0,3.1093871847092229,0.94915297696844669,-1.97998368532686965E-002,0.56812936773377942,-264.03445802532758,-8.18075040717905627E-002,94.964836069709236,173.62600781645583,260.12339851009210
201811131900,420.24059571761688,1.7366605068227230,0.50449280927454343,0,86.642926026661939,0,13.412790011130333,0,0.51299508385013937,0,0.29481962896752067,0,4.5856671641727944,-0.62770665011056903,-5.01804303936715310E-002,0.63096221289795995,-244.56343718324126,-8.83206428924042941E-002,93.352144999464002,170.67749419861110,255.70598782103309
201811131930,420.26337899419929,1.7473497985735977,0.35487405193776478,0,58.267388384916217,0,13.330542910532756,0,0.58546360468959024,0,0.29298365283228628,0,-2.5373701395398434,0.41414307618057822,1.94005127709105385E-002,0.52911016078964113,-214.43896774795382,-0.10072796109235192,90.687284525997711,165.80527933945856,248.40652212823261
201811132000,420.31681061578257,1.7003094416490363,0.52022491079634192,0,80.113844835362471,0,32.821463604628327,1,0.87566772393648851,0,0.72148699805998484,1,4.5585302091514297,-1.8207064789041503,4.54609230422105548E-002,0.64088373831852874,-277.12819429825225,-7.79422680348198088E-002,102.72117229547234,187.80706419371165,281.36920509002880
201811132030,420.29384095572192,1.6188513792005994,0.46492075973485897,0,46.012357951109287,0,15.602038332414301,0,0.41053086430694341,0,0.34291923009503711,0,-3.6520814515922817,-3.1550181272482543,-1.95538757104048756E-002,0.60568561965132228,-407.29420530892861,-5.30329175285384063E-002,104.13687219781025,190.39541512951112,285.24702645115053
201811132100,420.44747080298470,1.6012732238081371,0.47300042711362567,0,57.620765244573683,0,24.493264070663720,1,0.65227312948725213,0,0.53838746806760229,1,2.2964085693430007,-0.68059750948322850,0.13074976968051266,0.61100334781241139,-333.90314863984202,-6.46894169401751040E-002,100.35415289952887,183.47939781581042,274.88557225186804
201811132130,420.45341127069145,1.5685076193428900,0.45652261442390940,0,37.678298887640061,0,19.963616084914698,0,0.31289821191219236,0,0.43879238817597188,0,-1.7270435531950052,-1.2691668257199140,5.05755998547627750E-003,0.60015543659540249,-483.94365112294270,-4.46332955290959371E-002,113.19107449231078,206.94938461357106,310.04788926646148
201811132200,420.38397004522460,1.5327534421247826,0.23406946983942817,0,7.8427892301082878,0,7.7971343239745385,0,0.26178857888664703,0,0.17132802043752704,0,-7.7019747871194948,-1.3869238808871005,-5.91883993202701603E-002,0.42948958538331816,-852.05671020237173,-2.53504253195421594E-002,94.932468408678233,173.56682940895513,260.03473847193828
201811132230,420.50416560586950,1.5338670320815628,0.43289391058543469,0,8.8969631381255816,1,8.3602261310921548,0,0.16393824770113002,1,0.18368009476984340,0,-3.0046894844094201,4.32256295228458584E-002,0.10250581882642022,0.58391636196172236,-1887.6433597084338,-1.14428395008558965E-002,101.27580158176060,185.16446555170083,277.41011077977618
201811132300,420.62587699148582,1.5759654192434922,0.43641274675703123,0,2.3187789042028855,2,13.599526613975547,0,0.59633809288146555,2,0.29871341441056848,0,-6.9036456167427218,1.6365647113616457,0.10392735298116949,0.58592603359937467,-7318.7501962961642,-2.95132357583829247E-003,96.335687220584305,176.13236093080559,263.87837219272274
201811132330,421.01402640741708,1.5388042716812833,0.67883538314848690,0,30.054398939531449,1,19.297229951947653,0,0.27583091849876196,1,0.42360642276273891,0,-16.121672792483697,-1.4494376844558370,0.33233565143835475,0.72976594941858630,-1091.1438898602246,-1.97957393160740312E-002,107.70751729326911,196.92369316285442,295.02757655310990
201811140000,420.93081903390566,1.4770408843304461,0.32432633704838504,0,-12.847104040870704,0,3.6436023038030201,0,0.15613954163213772,0,7.99098380050420470E-002,0,-24.498632048912235,-2.4211635821015651,-7.15359126390573974E-002,0.50337916713507336,837.96077847030676,2.57768627780296522E-002,85.378842054595324,156.09975346084440,233.86587578369637
